User: anonymous   Login
Location: New Plymouth
(39.0670°S, 174.0830°E)
Time: 10:33:44
(UTC+13:00)
Language:

Atlas Centaur 2 - Orbit

View from above orbital plane
View from above orbital plane
View from above satellite
View from above satellite

Ground track
Ground track

The orbit data is extracted from the following two-line orbital elements,

1   694U 63047A   19289.06369039  .00000271  00000-0  19255-4 0  9990
2   694  30.3578 161.8540 0586193 216.2759 139.6697 14.02521778802240
Epoch (UTC): 16 October 2019 01:31:42
Eccentricity: 0.0586193
inclination: 30.3578°
perigee height: 459 km
apogee height: 1311 km
right ascension of ascending node: 161.8540°
argument of perigee: 216.2759°
revolutions per day: 14.02521778
mean anomaly at epoch: 139.6697°
orbit number at epoch: 80224

The dashed part of the orbit path shows where the satellite is in the earth's shadow,  

DLR